Theta_e
352 352 351 351 351 351 351 350 350 349 346 344 346 349 349 349 348 347 348 347 346 344 344 345 346 344 344 347 350 348 348 347 347 347 347 347 348 348 347 346 346 339 330 335 342 342 344 345 344 343 343 344 345 347 346 344 345 345 345 345 344 344 345 348 347 344 338 334 335 340 345 347 346 346 346 345 344 345 345 345 345 346 346 345 344
351 351 351 350 351 351 351 350 350 349 348 346 347 350 350 349 348 348 348 347 346 344 344 345 345 345 345 347 349 348 347 347 346 347 346 346 347 347 348 347 347 344 333 331 340 344 342 344 344 343 344 344 343 346 346 344 344 344 345 345 345 342 343 347 346 344 342 337 335 335 341 345 347 347 346 345 345 344 345 344 344 346 347 346 345
351 351 351 350 350 351 350 350 350 350 349 349 349 351 350 349 349 348 348 347 345 344 345 346 345 346 346 347 349 348 347 347 346 346 346 346 346 345 347 347 347 345 337 329 336 343 343 343 344 343 345 344 343 346 345 344 343 343 344 344 346 344 342 343 344 344 343 340 338 336 336 339 343 347 347 346 346 345 345 345 344 345 346 346 346
351 351 350 351 350 350 350 349 350 350 350 350 350 351 350 350 349 349 347 346 345 345 346 346 346 345 345 346 347 347 347 347 346 347 347 345 345 344 345 346 346 346 340 331 332 340 343 342 342 343 344 344 344 345 344 342 343 342 343 344 346 346 344 342 343 343 343 341 340 339 337 336 336 342 346 346 346 346 346 345 345 344 344 345 345
351 351 350 350 350 350 349 348 348 349 349 349 350 349 349 350 349 348 347 346 346 346 346 346 346 345 345 346 347 347 346 346 347 347 346 345 344 344 344 345 345 346 342 332 330 336 341 341 339 339 340 342 344 345 344 342 342 342 342 344 345 346 347 345 343 342 342 341 339 339 339 338 335 335 340 342 343 347 346 346 345 345 345 344 344
351 351 350 350 350 349 349 348 348 348 348 348 349 349 349 349 349 348 347 346 346 346 346 345 346 346 346 346 347 346 346 347 346 346 346 345 345 344 344 344 344 346 344 334 329 333 338 339 338 337 336 338 341 343 344 343 342 342 341 343 344 346 347 347 346 342 342 344 342 340 339 339 337 332 332 336 341 345 347 347 345 344 345 345 345
351 351 350 350 349 349 349 348 348 348 348 348 348 349 349 349 348 348 347 347 347 346 346 346 346 346 346 346 346 346 346 346 346 346 346 345 345 344 344 345 343 345 345 336 328 331 337 338 337 337 336 337 338 340 343 343 342 341 340 340 343 347 347 348 348 345 343 347 347 343 339 339 339 335 331 331 335 340 345 346 345 345 345 345 346
351 350 349 349 349 349 349 348 348 348 348 349 348 348 348 348 348 348 347 347 347 346 347 347 347 346 345 346 346 346 346 346 346 345 346 345 344 343 343 344 344 345 345 338 328 329 335 337 335 335 336 337 338 338 340 342 342 342 342 342 342 345 348 349 349 348 345 345 349 347 342 339 339 338 334 330 330 334 341 343 343 345 346 345 345
351 351 350 349 350 349 349 348 348 348 349 349 348 348 348 348 348 348 347 347 347 347 348 348 348 347 346 346 347 347 347 346 346 346 345 344 342 342 343 344 345 344 342 335 328 328 331 333 333 334 335 336 337 337 337 339 341 341 343 346 345 342 345 349 349 350 347 345 348 348 346 341 338 339 337 335 333 331 337 342 342 342 345 347 346
350 350 350 350 350 349 349 348 348 348 349 348 347 347 347 348 348 348 348 347 348 348 348 349 349 348 347 348 347 348 347 346 345 345 343 342 341 341 342 344 345 343 338 332 327 327 327 328 329 330 332 333 335 335 335 335 337 339 341 345 347 345 344 347 348 349 349 349 348 348 348 345 340 339 339 339 338 336 337 340 341 339 342 345 345
351 350 350 350 349 349 349 348 348 348 348 347 346 346 347 348 348 348 348 349 349 349 349 349 349 349 349 348 347 346 346 345 344 343 342 341 341 342 343 345 346 344 341 339 334 331 330 332 334 334 334 333 332 333 333 334 334 335 338 340 344 345 344 345 346 348 348 349 349 349 349 348 345 341 339 339 340 339 338 339 341 340 341 343 343
351 351 350 349 349 349 349 348 348 348 347 347 347 346 347 347 347 348 349 349 349 349 349 350 349 349 349 348 345 345 345 344 343 342 341 341 343 343 344 346 346 346 345 345 344 342 342 343 344 344 341 339 336 333 334 335 334 334 336 337 338 339 341 343 344 347 348 348 351 351 349 350 350 346 341 338 338 339 338 337 339 340 341 343 344
350 350 350 349 349 349 349 348 348 348 348 348 347 346 346 346 347 348 349 350 349 349 350 350 349 349 348 345 343 343 344 343 342 341 341 342 343 344 345 346 347 347 347 347 348 348 348 348 348 348 347 346 344 340 339 339 338 337 337 337 338 337 338 339 341 345 346 346 349 351 350 350 351 350 346 342 339 338 338 336 335 335 336 338 341
349 349 349 348 349 349 349 348 347 348 349 348 347 347 346 346 346 348 349 349 349 349 350 349 349 349 346 344 344 343 342 342 342 341 341 342 342 343 345 346 346 347 348 348 348 348 348 347 347 348 348 349 349 348 347 345 343 342 341 339 338 338 338 338 339 341 344 345 347 348 349 350 350 351 350 348 343 339 339 338 336 334 333 334 336
349 349 349 348 349 349 348 348 347 349 350 348 347 347 346 346 346 348 349 350 350 349 349 349 349 347 345 347 350 350 348 344 341 341 341 341 342 343 344 344 345 346 347 348 348 348 348 347 346 347 348 349 350 351 351 348 345 346 347 345 343 340 340 340 341 342 343 346 347 347 347 349 349 350 351 351 348 344 340 339 339 337 336 335 334
350 349 348 347 349 349 348 348 348 350 350 348 347 347 347 347 347 349 349 350 350 349 349 348 349 347 346 348 347 349 356 350 342 342 341 341 342 342 343 343 343 344 345 346 347 347 347 347 346 347 349 350 351 352 351 349 347 349 351 350 348 345 343 343 344 345 346 348 349 348 347 348 348 349 350 351 351 349 344 340 340 339 338 338 337
351 349 347 347 348 348 348 348 349 350 350 348 348 347 347 347 348 350 350 350 350 349 349 347 350 348 346 350 349 351 358 351 344 346 343 342 344 343 344 344 343 344 344 346 346 347 347 346 346 347 349 350 351 351 351 351 351 351 351 351 351 349 347 345 346 347 347 349 350 349 349 348 347 347 348 349 351 351 348 343 340 339 340 339 339
351 350 348 346 347 348 348 348 349 350 350 349 349 348 347 348 349 350 350 350 349 349 349 347 350 349 345 348 349 350 354 349 349 352 346 343 344 345 345 345 345 346 346 346 346 347 346 347 346 347 349 350 350 350 350 351 352 352 351 351 351 350 348 346 346 347 348 349 350 350 351 350 349 347 346 348 349 351 351 348 343 340 340 339 339
351 351 349 347 347 348 348 348 349 350 350 350 349 349 348 348 349 350 349 350 349 349 348 347 349 350 347 348 347 347 348 348 350 353 354 353 346 343 345 345 346 346 345 345 346 346 346 346 347 347 348 349 348 348 348 350 351 352 351 350 351 350 348 347 347 348 348 349 350 351 351 350 351 349 346 346 348 349 351 351 349 344 341 340 340
351 351 350 348 348 348 348 348 349 350 351 350 349 349 349 349 349 350 350 349 349 348 348 347 348 349 349 349 348 347 346 346 346 347 355 359 353 348 346 344 345 345 344 344 345 346 345 346 346 347 348 347 347 347 347 349 351 351 350 351 351 351 350 350 350 350 349 349 349 350 351 351 351 350 347 346 346 348 350 351 351 349 344 341 340
351 351 350 349 348 348 348 348 350 350 351 350 349 349 349 349 349 348 349 349 348 349 348 347 347 348 348 347 347 347 347 347 346 344 349 354 355 354 348 345 346 345 344 344 345 345 345 346 346 346 347 346 346 346 346 349 351 351 351 351 351 351 351 350 348 348 347 348 348 350 351 351 351 351 349 347 346 347 349 350 351 351 349 346 342
351 351 350 349 348 347 347 348 349 350 351 350 349 350 350 349 348 348 348 348 349 350 349 348 348 348 347 347 347 346 347 347 347 346 347 348 351 352 346 345 347 345 343 343 343 345 346 345 346 345 345 345 345 346 347 349 350 351 352 351 351 352 352 350 348 347 346 346 347 349 350 351 351 351 351 349 347 347 348 350 351 352 351 350 346
351 351 350 349 348 347 347 347 349 350 351 351 350 350 350 349 348 348 349 350 350 350 349 349 349 347 347 348 347 346 346 347 346 346 347 348 351 352 347 345 345 343 343 344 343 344 345 345 345 344 344 345 345 346 347 349 351 351 352 352 352 351 351 351 349 349 347 346 346 347 348 349 349 349 350 350 349 347 347 348 350 351 352 351 350
351 351 351 350 348 347 346 346 347 348 350 351 351 350 350 349 348 348 350 350 351 350 350 349 348 347 348 348 348 347 346 346 346 346 346 346 349 350 347 345 346 344 342 344 345 344 344 344 344 344 343 344 345 347 348 349 350 351 352 352 352 351 351 350 350 350 349 348 346 346 346 346 346 346 347 348 349 348 347 347 348 350 351 351 351
352 351 350 349 348 347 346 346 345 345 346 348 350 350 349 349 348 349 350 351 351 351 349 348 348 348 348 348 348 348 347 346 345 345 345 345 347 348 347 347 348 346 345 345 345 345 344 343 343 343 343 344 345 346 347 347 350 351 352 352 352 352 352 351 351 352 352 350 346 344 344 344 344 344 345 346 346 346 347 347 348 349 350 350 350
351 350 349 348 347 346 345 345 345 344 344 345 347 348 348 349 348 349 350 350 350 349 347 346 347 349 349 348 348 347 347 346 344 345 345 345 346 347 347 348 347 346 346 346 346 345 344 342 343 343 343 344 345 345 346 346 349 350 351 352 352 352 352 352 352 352 352 350 344 342 342 343 343 344 344 344 345 346 346 346 347 348 349 350 350
350 348 348 347 346 346 346 346 346 345 345 345 346 347 348 349 348 349 350 349 349 348 345 346 348 350 350 350 348 347 347 347 346 345 345 345 346 346 347 350 351 349 346 346 345 345 345 343 343 343 344 344 345 345 345 346 347 348 349 351 352 353 352 351 351 350 349 346 342 340 340 341 342 343 343 343 343 344 345 344 345 346 348 351 350
350 349 347 347 346 346 346 346 346 346 345 346 346 347 348 349 349 349 349 349 349 348 346 346 348 350 351 351 350 348 347 348 349 347 346 346 347 347 346 347 351 354 353 353 350 346 344 345 344 344 344 345 346 346 346 346 346 347 348 350 352 353 353 353 352 349 346 344 342 340 340 339 340 340 341 341 342 342 343 344 346 347 349 350 351
350 349 348 347 346 346 346 346 346 345 345 345 346 348 349 350 350 349 348 348 349 349 348 347 348 351 351 351 351 348 347 349 351 349 347 346 347 346 346 345 347 353 357 360 357 347 344 345 344 344 345 345 346 346 346 347 347 348 349 350 352 352 353 354 352 348 346 345 345 345 345 344 343 342 342 342 342 342 343 344 346 349 351 351 351
350 349 348 348 348 347 347 346 346 346 345 345 346 348 349 350 350 349 348 349 349 350 348 347 348 351 351 351 351 349 348 350 351 350 349 349 348 346 346 346 346 347 350 355 356 347 341 344 343 343 344 344 346 346 346 347 347 348 350 350 351 351 352 353 351 348 347 348 350 350 350 350 349 349 348 347 346 345 344 344 344 347 349 350 350
349 350 349 350 349 349 349 348 347 347 346 344 345 348 350 350 350 349 349 349 350 350 349 348 348 350 350 350 351 349 348 349 350 351 351 350 350 346 345 346 346 346 344 347 352 348 342 343 343 342 344 344 346 346 346 347 347 348 350 350 350 350 350 351 350 348 348 349 351 351 352 352 352 353 352 352 351 350 349 347 346 345 346 346 347
350 350 350 350 350 350 350 349 349 348 347 346 345 346 348 349 350 349 349 349 350 350 350 349 349 350 350 350 351 350 350 349 349 350 351 351 350 346 345 347 346 347 344 342 346 347 343 342 343 344 345 345 346 345 346 347 347 348 350 350 351 351 350 350 350 349 350 350 351 351 351 352 352 352 353 353 353 353 352 351 350 349 348 347 347
350 349 349 349 349 350 350 350 350 350 350 349 348 348 348 348 349 349 349 348 349 350 350 350 350 350 351 351 351 351 351 350 349 349 350 350 351 348 345 346 346 347 346 343 343 344 343 342 342 344 345 346 346 345 345 347 347 348 349 349 350 351 351 351 350 350 351 351 351 351 351 352 352 352 352 352 353 353 353 353 353 353 352 351 351
350 349 348 348 349 349 350 350 351 351 350 350 349 349 349 348 349 349 349 349 348 349 350 351 351 351 352 352 351 351 351 351 349 349 349 349 351 350 347 346 346 346 346 344 343 344 344 343 342 343 344 345 345 345 345 346 347 347 347 347 348 349 350 350 350 349 350 350 350 350 351 351 351 351 351 351 351 352 352 352 353 353 354 354 354
352 350 348 348 348 348 349 349 350 350 350 350 349 349 349 348 349 349 350 350 349 349 349 350 351 351 352 352 352 352 352 352 350 349 349 349 350 351 349 347 346 346 346 346 344 344 344 344 343 343 344 344 345 345 344 344 345 345 345 346 347 348 348 349 348 348 349 349 349 349 349 350 350 351 350 350 351 350 350 350 350 351 352 353 353
353 352 351 350 348 348 349 349 349 349 349 349 349 349 348 349 349 350 350 351 350 350 349 349 350 351 351 352 352 352 352 352 351 350 350 350 349 350 350 349 347 346 346 346 345 344 344 344 344 344 344 345 345 345 344 344 344 344 344 344 346 347 347 347 348 348 348 348 349 349 349 349 349 349 349 349 349 349 349 349 349 350 351 351 352
353 353 352 352 350 350 349 349 349 348 349 349 349 350 349 349 350 351 351 351 351 351 350 349 349 349 351 351 350 351 351 352 351 351 350 350 350 350 350 350 349 347 347 347 346 344 344 344 345 344 345 345 345 345 345 345 344 344 345 344 345 346 346 346 346 347 347 347 348 348 348 347 347 347 347 347 347 347 347 348 348 349 350 351 351
354 354 353 353 353 352 351 350 350 349 349 348 349 349 349 349 349 350 351 352 352 352 351 351 351 350 350 350 350 350 351 351 351 350 350 350 350 350 350 349 349 348 347 347 346 345 345 345 345 345 344 344 344 344 344 344 345 345 345 345 345 345 345 345 345 346 346 346 346 346 345 345 345 345 345 345 345 345 345 346 348 348 349 349 349
355 355 354 354 354 354 353 352 352 352 351 349 348 348 348 348 348 349 350 351 351 351 352 351 352 351 350 350 350 350 350 350 350 349 350 350 350 350 350 349 349 349 347 347 346 345 345 345 345 344 345 344 344 344 344 344 345 346 346 346 346 345 345 345 345 345 346 345 344 344 344 344 344 344 344 344 344 344 345 346 348 348 349 349 350
355 355 354 354 354 355 354 354 354 354 353 352 350 349 349 349 348 347 347 349 349 350 351 351 351 351 351 350 350 350 349 349 349 348 349 349 349 350 350 350 349 349 348 347 346 345 345 345 345 344 345 344 344 344 343 344 346 347 347 346 346 346 346 346 346 346 346 345 344 345 344 344 344 344 344 345 345 345 345 346 347 348 349 350 351
354 355 355 355 355 355 354 355 354 354 353 353 352 351 351 349 348 348 347 346 347 348 349 350 350 351 351 350 350 350 350 350 349 348 348 348 348 349 349 350 350 349 348 347 347 346 345 345 344 345 344 344 344 344 343 344 345 346 347 347 348 347 348 348 347 347 346 346 346 345 344 344 344 344 344 344 343 343 342 343 343 343 345 347 349
354 354 354 355 355 355 355 355 355 354 354 353 353 352 351 349 349 350 350 348 348 348 348 349 350 350 350 350 350 350 350 350 349 349 349 348 348 348 349 350 350 350 349 348 347 347 346 345 345 345 345 344 344 344 343 343 343 344 345 346 347 347 347 348 348 347 347 347 346 345 345 345 344 343 343 342 342 343 343 342 340 341 342 344 346
353 354 354 355 355 355 356 355 355 355 354 354 353 353 353 351 351 352 352 352 352 351 350 349 348 349 349 350 350 350 350 351 350 350 350 349 348 348 349 349 350 350 350 349 348 348 347 346 345 345 345 345 346 345 344 344 344 344 344 345 346 346 347 348 349 348 347 346 346 346 345 345 344 344 344 343 344 344 343 342 342 343 345 345 346
352 353 353 353 354 354 355 355 355 355 354 354 354 354 354 353 351 351 352 353 352 351 351 350 349 349 349 349 349 349 350 350 350 351 351 351 350 349 350 350 351 351 351 350 349 349 348 347 346 346 346 346 347 347 346 346 345 344 344 345 346 347 347 348 348 348 347 346 346 347 347 346 346 345 344 345 345 345 344 345 346 345 345 345 345
351 352 352 352 353 353 354 354 354 354 354 354 354 354 354 353 351 351 352 352 352 352 351 350 349 349 349 349 349 349 349 350 350 351 351 352 352 352 351 352 352 352 352 351 350 350 349 349 347 347 347 347 348 349 348 347 346 345 345 345 346 347 348 348 348 347 347 347 348 348 347 346 346 346 346 346 346 346 347 347 345 344 344 345 344
351 352 352 352 353 353 353 353 353 354 354 353 353 352 352 353 352 351 351 351 351 351 351 349 348 348 349 349 349 349 349 349 350 350 351 352 352 353 353 354 354 354 354 353 352 351 351 350 350 349 349 349 349 349 348 347 347 346 346 346 346 347 348 348 348 347 348 348 348 347 347 347 347 347 347 347 347 347 347 345 344 344 345 344 344
351 352 351 352 353 353 353 353 353 354 353 352 352 351 351 352 352 352 351 350 350 350 349 349 348 347 348 348 348 348 348 349 349 350 351 351 352 352 353 354 354 354 354 354 354 353 352 352 351 350 350 350 350 350 349 348 347 347 347 346 346 347 347 348 348 348 349 349 348 347 348 349 348 349 349 348 348 347 346 345 345 345 345 345 345
351 352 352 353 352 352 353 353 353 353 352 351 351 351 351 351 351 351 350 350 349 348 348 347 347 347 347 347 347 347 347 348 348 349 350 351 352 353 353 353 353 353 354 353 353 354 353 352 351 351 351 351 351 350 349 349 348 347 347 347 347 348 348 348 348 348 348 349 348 348 349 350 349 349 349 348 347 347 346 345 345 345 345 345 346
352 352 352 352 352 352 353 353 353 352 351 351 351 351 351 351 350 350 350 348 347 346 346 346 345 345 346 345 346 346 346 347 348 348 349 350 351 352 352 353 353 353 353 353 352 353 354 353 352 350 349 350 351 351 350 349 349 347 347 348 349 349 348 349 350 349 348 348 348 348 349 350 349 348 348 347 346 347 346 346 345 345 345 345 345
352 352 353 353 353 353 354 353 353 352 351 351 351 350 349 349 349 349 348 347 346 345 344 345 345 345 346 346 346 346 346 346 347 347 348 348 350 352 352 352 352 352 352 352 352 352 353 353 353 352 351 351 352 351 351 350 348 347 348 349 349 349 348 349 350 349 349 348 348 348 349 349 348 347 347 347 347 346 346 345 345 345 345 345 344
352 353 352 352 352 353 354 353 352 352 352 351 350 349 348 348 349 348 347 346 345 345 345 345 345 345 346 346 347 347 347 347 346 346 347 348 349 350 352 352 352 352 352 352 352 352 352 353 354 354 354 353 353 352 351 350 348 348 348 349 349 349 349 349 349 349 350 349 348 348 349 347 346 346 346 347 347 347 345 345 345 345 344 343 342
Wind_Speed
23 23 21 20 20 20 20 21 21 20 20 20 19 18 17 14 12 11 11 11 10 9 9 9 8 7 7 7 7 6 6 5 6 7 7 7 7 7 7 7 7 7 8 8 7 7 7 7 6 6 5 5 4 3 4 4 5 5 6 6 7 7 8 8 8 10 12 10 9 8 8 8 7 7 7 7 6 6 7 7 7 7 6 6 6
22 21 20 19 19 20 20 20 19 18 20 20 18 18 17 14 12 11 11 11 11 10 10 10 9 8 8 8 8 8 7 6 7 7 8 8 8 9 8 8 8 7 8 9 8 7 8 7 7 6 5 5 5 4 3 3 4 5 5 5 6 7 7 7 7 8 10 11 9 8 8 7 7 7 6 6 6 5 6 6 6 6 7 6 6
20 19 18 16 16 17 19 19 18 17 19 17 15 16 15 12 11 11 11 11 11 11 11 11 11 9 9 9 9 9 8 7 8 8 8 8 9 10 10 9 9 8 8 10 9 8 8 8 8 7 6 6 5 4 3 3 3 4 4 5 5 6 6 6 6 6 8 9 9 8 7 6 6 6 6 6 5 5 5 5 5 6 6 7 6
18 18 16 14 13 14 16 17 17 17 17 16 15 15 13 12 11 11 11 11 12 12 11 12 11 10 10 10 10 10 9 8 9 9 8 9 10 10 11 10 9 9 9 10 11 9 9 9 8 8 7 6 5 4 4 3 3 3 3 4 4 5 5 6 5 5 6 7 8 8 8 6 5 6 6 5 5 5 5 4 4 5 5 5 6
17 17 15 14 13 13 14 15 15 15 15 15 16 15 13 12 11 11 11 11 12 11 10 11 11 11 10 10 10 10 9 9 9 9 8 9 10 11 11 11 10 9 9 10 11 10 9 9 8 8 8 7 6 5 4 4 3 2 2 3 3 4 4 4 5 4 5 6 7 8 8 7 5 4 5 6 5 4 5 5 4 4 4 4 4
16 16 15 13 12 12 12 13 12 12 12 13 14 14 13 12 11 11 11 11 11 10 10 11 10 10 10 10 10 9 9 10 10 9 9 10 11 12 12 11 10 10 10 10 12 12 10 9 9 8 8 8 7 6 5 4 4 3 3 3 2 3 3 3 3 3 3 4 5 7 7 7 7 5 4 5 6 4 4 4 4 4 4 4 4
14 15 15 12 11 11 11 11 10 9 10 10 11 12 12 11 11 11 11 10 10 9 9 9 9 9 9 10 10 9 10 11 11 10 11 12 13 13 13 12 11 10 10 10 12 13 11 10 9 9 8 8 8 7 6 5 5 4 3 3 3 2 2 2 2 2 2 2 3 5 6 6 7 7 5 4 6 5 4 5 4 4 4 4 4
13 15 15 12 11 11 11 10 9 8 9 9 9 10 11 11 11 11 10 9 9 8 8 7 8 8 8 9 9 9 11 11 12 12 13 14 14 13 12 12 10 9 10 10 11 12 11 10 10 10 9 9 8 8 7 6 6 6 5 4 4 3 3 3 2 1 1 1 2 2 4 5 5 5 6 5 5 5 6 5 4 3 4 4 4
13 14 14 12 11 11 11 10 8 8 9 9 9 10 10 11 11 10 9 8 8 8 7 7 7 7 7 8 9 10 11 12 12 13 14 13 12 11 11 10 10 9 10 10 10 12 12 10 10 10 10 9 9 9 8 8 7 7 6 5 5 5 5 4 3 3 3 1 1 1 1 3 4 3 4 4 5 6 6 4 4 4 4 4 4
13 14 14 11 9 10 10 10 9 9 9 9 9 10 11 11 10 9 9 8 8 8 7 7 7 7 8 9 10 11 11 11 12 12 12 11 10 9 9 9 9 8 8 9 9 11 11 10 10 10 10 10 10 9 9 9 8 8 7 7 6 6 6 5 5 4 4 3 2 2 1 1 2 2 2 2 3 4 4 4 4 4 4 5 5
13 13 13 11 9 9 10 10 9 9 9 9 9 11 11 10 10 9 8 8 8 8 7 7 7 8 9 10 11 10 10 10 10 9 10 10 8 8 9 9 9 8 7 7 8 9 10 9 9 9 9 9 9 9 9 9 9 8 8 7 7 7 7 7 6 5 5 5 4 3 3 2 1 1 0 0 1 2 2 3 3 3 3 4 4
13 14 13 12 11 10 10 10 10 9 10 10 11 12 11 10 10 10 9 9 9 9 7 7 8 9 10 11 9 8 9 8 7 7 8 8 8 8 9 10 10 9 8 7 7 8 8 8 7 7 7 7 8 8 8 9 9 8 8 8 8 8 8 8 8 7 6 6 5 4 4 4 3 1 1 0 0 1 1 1 2 2 2 2 3
13 14 14 13 12 11 10 11 11 10 10 10 10 10 10 10 10 10 10 10 10 9 7 6 7 8 7 6 7 6 7 8 7 7 8 8 8 9 9 11 11 10 9 8 8 8 8 7 7 6 6 6 6 7 7 8 8 8 8 8 8 8 8 9 9 9 8 7 6 6 5 5 5 4 2 1 1 1 1 1 1 2 2 2 2
12 14 14 14 14 13 12 13 12 11 10 10 9 10 10 11 11 11 11 11 10 8 6 5 5 5 3 2 4 4 6 7 7 8 9 9 9 9 10 11 12 11 10 10 9 9 8 8 8 7 7 7 7 7 8 8 8 7 7 8 9 9 9 8 9 9 9 8 8 8 7 6 6 6 5 4 3 3 2 2 2 2 2 2 2
13 14 15 15 15 14 14 13 13 12 11 11 11 11 12 12 12 12 11 10 10 8 7 6 5 4 1 0 1 2 3 5 8 9 10 10 11 11 11 12 11 11 11 11 11 10 9 9 8 8 8 7 7 7 7 8 8 7 7 8 8 9 9 8 9 9 9 9 9 9 8 7 7 7 7 6 5 4 3 3 3 3 3 2 2
14 15 16 16 15 15 15 14 14 13 12 12 12 13 13 13 13 13 11 11 10 8 7 6 6 5 2 1 1 1 1 3 6 9 10 11 11 11 12 12 12 11 11 12 12 11 11 10 9 9 8 8 7 7 7 7 8 7 7 8 9 9 9 9 9 9 9 9 9 10 10 9 8 8 7 7 6 5 4 5 5 4 3 3 3
14 15 16 17 16 16 16 16 14 13 13 13 13 13 13 14 14 12 12 12 11 9 7 5 6 8 5 2 1 0 1 1 2 6 10 11 11 11 12 12 12 12 12 13 12 12 11 11 11 10 9 9 8 8 8 7 8 8 8 8 9 10 11 10 10 10 10 10 10 10 10 10 9 9 8 8 8 7 6 5 6 6 5 4 3
14 15 17 18 17 16 17 17 15 14 13 13 13 13 14 15 14 13 12 12 12 11 11 7 6 10 10 5 3 2 2 1 1 2 6 10 12 12 13 13 12 13 13 13 12 12 12 12 12 12 11 10 9 9 9 8 8 8 8 8 8 9 11 11 11 10 10 10 11 10 10 10 10 9 9 9 8 8 7 7 7 7 7 6 5
14 15 17 18 18 17 17 17 16 15 14 14 14 14 14 15 14 13 13 12 13 13 13 11 8 9 11 10 8 7 5 3 3 1 1 4 8 11 13 14 13 14 14 14 13 12 12 12 12 12 11 11 10 9 9 9 8 8 8 8 8 8 9 10 11 10 10 10 11 10 10 11 10 10 10 10 9 8 8 8 8 8 8 7 7
15 16 18 18 18 18 18 18 17 15 15 15 16 15 15 15 15 14 14 14 14 15 14 13 12 10 10 10 10 10 9 7 6 4 1 1 3 5 9 12 14 15 14 14 13 12 11 11 11 11 11 11 11 10 9 9 8 8 8 7 8 8 8 9 10 10 10 10 11 11 10 11 11 10 10 11 10 9 9 9 9 8 8 8 8
16 17 19 20 19 19 19 19 18 17 16 16 16 15 15 16 16 15 15 15 15 15 15 14 14 13 11 10 10 9 9 8 7 6 3 2 2 2 4 7 10 14 14 14 13 12 12 11 12 12 12 12 12 10 9 9 8 8 7 7 7 8 8 8 9 9 10 10 10 10 10 11 11 11 10 10 11 10 9 9 9 9 8 8 9
16 17 18 20 21 21 20 20 19 18 18 17 16 16 16 16 17 16 15 15 15 14 14 13 14 14 12 10 9 8 7 6 7 7 5 3 3 3 5 5 5 9 11 13 14 13 12 12 12 13 12 11 11 10 9 9 9 8 7 7 7 8 9 8 8 8 9 9 9 10 10 10 11 11 11 10 11 11 10 10 10 10 9 9 9
16 17 18 20 22 22 22 21 20 20 20 18 17 17 17 17 17 16 15 15 15 14 14 15 15 14 12 11 10 10 9 8 8 9 8 5 3 3 7 7 6 8 8 9 11 12 12 13 13 12 11 10 9 9 9 9 9 8 7 7 7 8 9 8 8 8 8 8 9 10 10 11 11 11 11 11 11 11 11 11 11 11 11 10 9
17 17 18 19 21 23 23 23 22 22 22 20 19 17 17 17 17 16 15 15 15 15 15 16 16 15 15 13 11 10 11 11 10 10 9 8 6 5 5 5 5 7 8 8 9 10 11 12 12 12 11 10 9 9 9 9 9 8 7 7 7 8 9 8 8 8 8 8 9 9 10 11 11 11 11 11 11 11 11 12 12 12 11 12 11
17 18 19 19 21 23 23 24 23 23 23 23 21 19 17 18 18 17 16 15 16 16 16 16 16 16 15 15 14 12 12 11 10 10 9 9 7 5 5 4 4 5 6 7 9 10 10 11 11 11 11 11 10 10 9 8 8 8 8 8 8 8 9 9 9 9 9 9 9 9 10 10 10 11 11 11 12 12 12 12 13 13 12 13 13
19 18 18 19 21 22 23 23 23 22 23 23 22 21 19 19 20 19 17 16 16 17 17 17 17 17 15 14 15 15 13 11 11 11 10 9 8 6 4 3 4 5 4 5 7 8 9 10 10 11 11 10 9 9 9 8 8 8 8 8 8 8 8 8 9 9 9 9 8 8 9 9 10 10 10 11 12 12 13 13 13 14 14 13 13
18 17 17 19 21 22 22 22 22 22 22 22 22 22 20 20 21 20 18 17 17 18 18 18 18 18 16 15 15 15 15 13 12 12 12 11 10 9 6 3 2 3 3 3 6 9 11 10 10 10 10 9 8 8 8 8 8 8 8 9 9 9 8 8 8 8 9 8 8 7 8 8 8 9 9 9 10 11 12 13 14 15 14 14 14
17 17 17 18 19 21 22 23 22 22 22 22 22 22 21 21 21 21 20 19 19 19 19 19 19 18 17 17 16 16 16 14 13 12 12 12 11 11 10 8 5 1 1 2 4 7 11 12 10 9 10 9 8 8 8 9 9 8 9 10 10 9 9 8 7 7 7 7 6 6 6 6 7 7 8 9 9 10 10 11 12 13 13 14 14
17 17 16 17 17 19 21 22 22 22 22 22 22 22 22 22 22 22 22 20 20 21 20 21 21 19 18 18 17 17 16 15 14 13 12 12 12 13 12 12 9 4 1 1 2 5 8 11 11 10 10 10 10 10 9 9 9 9 10 11 10 9 8 8 7 7 7 7 6 5 5 5 6 7 7 8 9 10 11 11 11 12 12 13 13
17 17 16 16 16 17 19 20 22 22 22 22 22 22 22 23 23 22 22 21 21 22 21 21 22 20 19 18 18 17 17 17 16 13 12 12 13 14 14 13 13 10 6 3 3 5 8 10 11 11 10 10 10 11 11 10 9 9 10 10 10 8 7 7 8 8 8 7 6 6 6 6 7 7 8 8 9 10 11 11 12 13 13 13 13
18 17 16 16 16 17 18 19 20 21 22 22 23 22 22 23 24 23 22 21 22 23 22 22 22 22 20 19 19 18 17 18 18 16 14 13 13 14 14 14 14 14 13 8 3 5 8 9 9 10 10 9 10 11 11 11 10 10 10 9 9 7 7 8 8 9 9 8 8 8 8 8 9 9 10 10 11 11 12 12 13 14 14 15 15
19 18 17 17 17 17 17 18 19 20 20 21 22 23 23 24 25 25 23 22 22 23 23 22 22 23 22 21 20 20 18 19 19 18 16 15 14 14 14 15 14 14 15 12 7 8 13 12 10 9 9 9 10 11 11 11 11 11 10 9 9 8 8 8 9 9 9 9 9 10 10 10 11 12 12 12 12 13 13 13 14 14 15 16 16
19 19 18 17 17 16 16 16 18 19 20 21 21 22 23 25 26 27 26 24 24 24 24 24 24 23 23 22 22 21 19 19 20 20 19 17 15 15 15 15 15 14 15 15 12 11 15 15 12 10 8 8 10 11 11 11 11 11 11 10 10 9 9 9 9 10 10 10 10 10 11 11 11 11 11 12 12 13 13 14 15 15 16 16 17
19 19 18 17 17 17 17 16 16 18 21 22 21 21 23 24 25 27 27 27 27 26 25 25 25 24 24 24 23 22 21 20 20 21 20 19 18 17 16 16 16 15 15 16 15 12 13 15 14 11 10 9 10 10 10 11 12 12 12 11 11 10 9 9 9 9 9 10 10 11 11 11 11 11 11 11 12 13 13 14 15 16 17 17 18
18 19 20 20 19 20 21 21 20 21 22 22 23 24 25 25 25 26 27 28 28 28 28 27 26 25 25 25 25 24 23 22 21 21 21 21 20 19 18 18 18 17 16 16 16 14 14 15 13 12 11 10 10 10 9 10 12 13 14 13 12 11 10 10 11 10 10 10 11 11 12 12 13 13 13 13 14 14 14 15 15 16 17 18 19
19 19 19 20 20 21 22 22 22 23 23 24 24 25 26 25 25 26 27 28 28 29 29 29 28 27 26 27 27 26 24 24 23 23 22 22 22 22 20 19 19 19 18 17 17 17 16 14 14 13 11 10 9 10 10 10 11 13 13 13 13 13 13 12 13 13 12 12 13 13 14 14 15 15 15 16 16 17 17 17 17 18 18 18 19
21 21 20 20 21 22 23 21 20 21 23 25 26 26 25 25 25 26 28 28 28 28 29 30 30 29 29 29 28 27 26 25 25 25 24 24 23 23 23 21 20 19 19 19 19 18 18 17 16 15 13 12 11 10 10 10 11 12 13 14 14 14 14 14 15 15 14 14 14 14 14 15 15 15 16 16 16 17 18 18 18 18 18 18 18
20 20 20 21 22 22 22 21 20 20 22 25 26 26 26 26 26 26 28 29 29 29 29 30 30 30 30 30 30 29 28 27 27 27 26 26 25 25 24 24 22 20 20 20 19 19 20 20 19 18 17 16 14 13 12 12 12 13 13 14 14 14 14 15 15 15 15 14 14 14 13 13 14 14 14 14 15 15 16 17 18 18 18 18 18
20 20 20 21 21 20 20 20 20 21 22 24 25 25 26 27 26 25 25 26 27 29 30 30 30 31 31 31 31 31 30 30 29 29 28 27 27 27 27 26 25 23 22 21 20 20 20 20 20 20 20 19 17 16 15 13 13 13 13 14 15 15 14 15 15 14 14 14 14 13 13 13 13 14 14 14 15 15 15 16 17 17 18 18 18
21 21 21 20 20 20 20 20 21 21 22 24 25 25 25 25 25 22 21 23 25 27 29 31 31 31 32 32 33 33 32 32 31 31 30 29 28 28 28 27 26 25 24 23 22 21 21 20 21 21 21 20 19 17 16 14 13 14 14 15 16 16 15 15 16 15 14 15 15 14 14 15 15 14 14 14 14 14 15 15 15 16 17 18 19
20 20 20 20 20 20 20 20 20 21 22 23 23 24 23 22 21 20 24 28 28 27 28 29 30 31 32 32 33 34 33 33 33 33 32 31 31 30 29 29 28 27 26 25 24 23 22 21 21 20 19 19 19 18 17 16 16 17 17 16 17 18 17 17 18 16 16 16 16 17 16 15 14 14 14 14 15 17 19 19 18 18 18 18 19
19 19 19 19 20 20 20 20 20 21 22 21 21 21 20 18 17 19 25 29 30 30 30 30 30 30 31 32 32 33 33 34 34 34 34 33 33 32 31 30 29 28 27 26 25 25 23 22 22 21 19 20 22 21 19 20 19 19 19 18 19 19 18 18 18 18 17 16 16 17 17 15 14 15 16 17 19 21 22 22 21 20 20 20 21
17 18 18 19 19 19 20 20 21 21 21 21 20 19 18 16 17 21 25 27 28 30 32 32 32 32 32 32 32 31 32 33 34 34 35 35 35 34 34 33 32 31 29 28 27 26 24 23 23 22 21 21 23 23 22 22 21 21 21 20 20 20 18 15 15 15 16 16 15 16 16 16 16 17 18 20 22 23 22 21 19 19 19 20 21
17 18 19 19 19 19 20 21 21 21 22 21 20 20 19 18 21 23 25 26 27 28 29 31 33 33 33 33 32 31 31 32 33 33 34 35 35 35 35 35 35 34 33 31 30 28 26 25 24 24 24 24 24 24 23 23 22 22 21 21 20 20 19 18 16 16 17 16 14 14 16 18 18 19 20 22 23 21 19 18 18 18 19 19 20
17 19 19 19 19 19 20 21 21 21 21 21 21 21 20 21 22 23 25 26 27 28 29 30 31 32 33 33 33 33 33 32 33 33 34 34 34 35 35 35 35 35 34 34 34 32 30 28 26 26 27 27 26 25 23 21 21 20 20 21 21 21 21 21 21 20 18 16 14 14 16 20 21 20 22 22 21 19 18 18 19 19 18 19 19
18 19 19 20 20 20 20 21 21 21 21 21 20 20 20 20 21 22 24 26 27 29 30 30 30 31 32 33 33 34 35 34 33 33 33 34 34 34 34 35 35 35 34 35 35 34 34 32 31 30 29 28 27 25 22 20 20 21 21 21 21 21 22 22 21 20 17 16 16 14 14 19 21 20 21 22 20 19 20 19 19 18 18 18 19
19 19 19 20 20 20 21 21 21 21 21 19 18 18 18 18 19 21 22 24 27 29 30 31 30 30 31 33 34 34 35 35 36 35 34 34 34 34 34 34 35 35 35 35 36 36 36 35 34 33 31 29 28 26 23 22 22 22 22 22 20 19 19 19 18 18 17 18 18 14 13 17 18 18 20 22 21 20 19 18 18 18 18 19 19
19 19 20 21 21 21 21 20 20 21 19 18 17 18 18 18 19 20 21 23 27 29 30 32 32 32 33 35 36 37 36 37 38 38 37 35 33 33 34 34 35 35 36 37 37 37 37 37 36 34 31 29 28 27 25 24 23 22 21 20 17 16 15 14 15 17 18 18 18 16 15 16 17 18 21 22 21 20 19 18 18 18 17 17 17
20 20 21 21 21 20 20 19 19 20 19 18 17 18 18 18 19 20 21 23 27 29 30 31 32 33 35 36 38 39 39 39 40 40 40 38 36 35 34 34 34 34 36 37 37 37 37 37 37 36 33 30 29 28 27 25 23 21 19 19 18 17 16 12 12 15 18 17 17 16 15 15 16 18 21 22 20 19 18 18 17 15 13 13 12
20 21 21 21 20 19 18 18 19 19 20 19 18 18 18 18 18 19 21 23 26 30 31 31 32 33 35 37 38 39 40 41 41 41 41 40 39 37 35 34 32 33 35 36 35 35 36 36 35 35 34 32 31 30 28 26 24 21 20 21 20 19 17 15 14 15 16 16 17 15 13 14 15 16 17 18 17 16 15 15 12 8 8 9 11
19 20 20 20 19 18 18 18 18 19 21 20 19 19 19 18 18 19 20 22 25 28 29 29 30 32 33 35 37 39 41 42 42 41 41 42 41 39 37 34 32 33 36 35 33 33 34 34 35 34 33 32 31 29 27 26 24 22 22 21 20 19 19 19 18 14 8 10 15 15 13 14 15 14 13 11 9 8 7 6 7 7 9 13 14
Wind_Direction
235 235 235 234 231 228 225 226 228 228 228 230 233 238 242 244 249 253 251 250 260 269 271 273 275 277 269 256 255 258 261 266 268 272 281 295 305 304 298 293 293 286 262 239 223 216 213 218 225 214 203 202 186 156 137 130 118 110 99 91 83 76 76 75 69 58 58 74 98 110 107 101 101 103 106 113 115 112 108 102 98 99 107 118 123
234 238 238 237 237 235 234 234 235 238 240 237 231 232 238 242 249 253 251 253 262 271 271 271 272 274 270 261 259 260 264 272 270 272 283 290 295 297 297 293 289 283 265 247 231 221 220 220 226 223 216 218 202 180 166 152 135 121 109 100 89 78 79 79 72 64 61 67 79 99 114 113 107 108 113 115 119 121 119 111 106 105 107 116 124
235 240 241 238 237 238 239 239 238 241 247 246 235 232 237 243 250 254 254 257 264 269 267 268 269 271 270 264 261 259 264 273 272 274 283 288 289 289 289 287 283 278 263 249 237 225 225 225 228 230 225 226 216 199 189 178 159 136 124 110 98 91 84 82 78 69 66 66 68 81 102 120 124 121 117 116 125 130 131 128 120 116 114 116 121
239 241 241 236 233 236 241 242 243 246 248 248 242 238 241 246 250 251 254 257 261 261 259 265 268 270 269 263 258 258 263 268 269 274 279 282 284 284 283 280 277 273 261 249 241 230 227 229 230 233 232 230 224 214 205 199 187 159 139 125 112 104 91 87 84 70 66 65 63 67 75 95 130 145 136 130 134 138 141 142 139 132 128 127 125
241 242 242 239 234 234 240 245 246 249 250 248 247 245 244 246 248 249 251 253 256 257 258 263 267 269 269 260 255 256 262 264 267 274 277 279 281 281 281 277 272 267 259 250 244 235 228 230 232 234 237 233 230 224 216 215 211 195 172 156 136 123 105 96 88 73 69 68 64 61 59 67 90 132 158 158 147 145 153 150 151 153 151 150 141
236 240 242 239 236 233 237 245 248 248 248 246 246 247 245 246 247 246 247 250 255 257 260 262 264 269 267 257 253 255 261 266 270 274 274 277 279 280 279 275 270 262 255 249 245 239 229 230 233 233 236 235 232 227 223 223 223 218 209 201 170 142 129 111 95 82 82 84 72 61 58 57 63 83 129 167 162 157 160 157 162 165 167 168 165
233 238 243 236 232 232 233 240 246 245 241 240 242 245 244 244 244 243 244 249 254 256 257 260 265 269 263 256 255 259 266 271 276 277 278 279 279 279 277 273 269 260 253 248 245 241 229 226 232 232 232 234 233 230 227 226 229 226 220 226 210 175 159 148 131 96 88 114 92 63 64 61 58 69 86 138 170 173 160 158 170 176 176 177 178
231 236 244 237 229 231 234 237 241 237 234 237 237 237 238 240 239 239 240 244 249 250 252 262 271 271 263 259 263 269 275 279 282 283 282 280 277 274 271 270 268 259 250 246 244 242 233 225 227 231 231 232 234 233 232 231 233 231 226 236 231 211 199 182 179 181 145 138 126 68 64 69 66 66 74 101 150 172 169 162 167 181 189 190 190
229 234 243 239 229 227 233 238 236 229 230 235 233 229 231 235 236 234 236 238 241 246 252 263 274 277 273 272 278 283 285 287 290 289 283 279 275 266 259 262 263 255 246 242 240 240 240 233 228 231 233 234 235 236 237 235 237 236 228 233 238 232 220 206 207 210 210 194 150 128 67 70 77 73 67 85 120 153 171 176 177 187 192 196 201
233 233 240 239 226 222 232 237 231 226 229 233 227 222 223 229 233 229 230 234 237 247 255 267 283 288 286 288 291 291 290 293 295 290 285 286 279 259 246 246 250 248 243 240 237 235 237 237 235 236 236 235 235 238 241 240 238 237 232 230 234 238 231 224 225 220 221 223 204 198 222 87 95 97 70 75 106 136 156 174 187 198 200 204 212
234 229 236 234 219 219 230 230 225 223 226 225 217 216 219 224 229 227 227 234 241 250 258 274 288 291 293 299 299 293 290 296 298 288 283 286 276 251 237 235 239 238 235 234 230 226 225 226 230 236 238 237 236 238 241 243 241 237 235 232 231 234 233 233 234 231 230 229 223 217 227 230 168 122 95 106 104 134 150 160 175 187 193 203 219
229 226 230 228 218 218 222 221 219 221 222 217 211 211 216 221 226 227 229 238 243 248 260 278 289 291 297 304 304 298 294 296 296 281 275 276 263 247 234 230 235 232 228 225 218 216 216 219 225 234 240 240 240 240 240 243 243 239 237 236 234 236 235 234 236 236 237 238 234 227 229 239 230 207 204 227 229 187 169 173 179 186 184 187 207
219 222 224 220 217 215 216 215 215 220 223 218 211 211 215 221 227 232 237 244 246 248 262 278 286 288 293 306 308 301 294 290 284 270 264 262 255 248 237 233 237 236 232 229 224 223 227 230 234 239 242 241 241 241 241 242 241 239 237 236 235 236 237 236 237 240 242 243 242 239 236 240 241 229 225 250 245 234 221 215 227 236 236 227 216
213 217 219 214 213 214 215 215 214 222 226 220 215 213 216 221 227 235 240 245 249 249 256 263 274 274 267 324 328 308 291 277 266 261 257 255 253 249 242 240 242 241 241 240 237 238 242 245 245 246 246 244 243 242 243 242 237 238 239 240 239 236 237 238 238 241 244 243 242 243 241 239 245 242 237 242 242 247 239 222 234 250 266 271 237
216 214 217 212 212 214 214 215 217 223 224 218 212 211 216 221 226 233 240 247 251 249 246 252 259 252 212 77 344 336 307 279 258 251 250 253 253 250 246 245 245 245 247 247 247 248 252 256 255 254 250 245 245 245 247 243 236 240 243 244 245 242 240 238 239 241 243 245 243 243 243 240 244 247 245 243 241 246 245 236 239 242 262 280 257
220 215 217 213 211 212 212 214 217 220 221 217 211 210 214 220 224 230 238 243 246 246 246 251 248 222 157 96 60 61 315 288 268 252 250 255 254 251 250 250 251 252 252 253 254 255 258 261 261 259 249 241 245 249 248 244 239 241 245 246 246 245 243 241 242 244 244 247 246 244 243 241 242 246 248 247 241 241 246 246 245 240 249 267 273
224 216 218 215 212 211 211 211 214 216 217 217 213 212 215 220 224 227 233 237 238 245 254 257 247 228 201 141 98 106 249 271 295 262 252 254 255 254 254 255 256 256 258 262 263 261 261 261 261 259 249 241 247 252 250 247 245 245 248 249 247 245 243 242 243 246 248 248 249 249 245 241 240 243 248 251 245 240 240 242 244 243 241 245 261
227 220 219 217 215 212 209 210 213 214 214 217 217 216 218 220 223 226 229 234 238 249 256 257 249 230 223 227 234 244 241 174 126 287 262 254 251 251 251 253 255 255 258 263 265 263 261 260 260 258 253 248 250 253 252 249 246 248 250 249 246 245 242 241 242 246 249 249 250 251 246 240 238 239 244 249 248 243 239 237 240 244 242 239 241
230 226 220 218 218 214 209 210 212 213 215 219 220 219 218 219 223 226 229 233 239 250 256 255 249 233 229 241 251 258 265 233 198 247 304 261 252 250 249 248 250 253 256 259 260 259 258 256 255 253 252 251 254 256 253 251 247 244 244 240 239 241 238 237 238 241 246 247 248 249 245 237 235 237 239 244 249 247 243 241 241 243 245 243 240
232 231 225 219 220 216 210 210 212 213 217 220 221 219 218 219 223 227 232 237 242 250 255 250 243 239 240 246 252 258 262 254 241 234 200 280 283 266 258 252 249 251 255 255 253 251 250 250 250 251 251 252 255 257 255 250 245 238 233 232 234 236 236 236 237 238 242 245 245 246 243 234 234 237 237 240 248 250 245 244 246 247 247 248 247
231 233 229 223 222 219 213 212 212 213 217 219 219 219 219 219 221 226 232 239 244 248 248 242 238 243 250 254 255 254 253 252 249 238 210 225 271 279 280 271 257 253 251 248 246 245 247 251 254 252 252 256 256 255 253 243 234 230 227 227 230 233 236 237 237 237 239 242 242 243 241 234 234 238 238 239 246 250 250 248 248 251 254 252 249
230 232 232 227 225 224 220 216 215 216 219 219 219 221 222 219 219 224 231 241 245 240 235 235 239 246 251 254 251 243 237 234 231 225 215 223 242 264 281 282 267 261 255 245 244 248 251 254 254 251 253 260 256 246 243 235 226 226 227 230 232 233 236 237 236 238 240 241 241 241 241 238 238 240 242 243 245 248 252 253 249 249 254 257 253
230 231 232 230 228 228 226 223 220 221 222 222 223 223 223 221 219 224 233 241 240 234 231 235 242 247 250 251 248 241 235 230 228 226 220 218 227 264 277 277 268 265 261 252 251 253 254 254 251 249 256 264 252 237 235 231 225 225 229 235 237 236 236 237 238 241 245 246 245 243 242 241 242 243 245 247 247 248 251 254 253 249 251 257 261
228 229 231 230 229 229 230 229 227 226 226 226 227 227 226 224 221 226 234 236 233 233 236 240 246 251 251 250 249 249 245 243 247 244 238 240 241 253 276 282 271 265 264 264 266 264 258 253 249 250 259 261 248 235 231 229 225 225 230 232 234 235 234 236 239 242 247 249 248 245 242 241 242 243 245 246 247 248 249 252 254 251 249 253 261
225 227 229 228 228 229 231 232 232 231 230 230 231 230 229 226 223 227 232 232 233 237 242 248 253 255 256 254 252 254 252 250 255 256 253 251 246 248 267 264 258 276 280 271 272 277 269 256 250 254 258 252 241 236 234 230 226 225 230 232 229 231 232 234 238 242 247 250 248 244 241 239 240 242 243 245 247 249 249 250 252 253 252 253 257
228 229 229 228 228 230 232 234 236 236 235 234 234 233 232 228 225 227 230 231 235 242 248 253 255 256 259 259 254 255 257 256 256 255 253 251 246 243 248 248 252 268 283 276 271 274 271 262 255 254 251 243 238 240 238 233 231 229 233 236 231 228 231 234 237 241 244 246 246 242 239 239 239 242 244 246 248 248 249 251 252 254 255 256 259
235 233 230 229 229 231 233 236 239 240 239 238 238 235 234 230 226 228 230 231 237 246 252 254 254 255 259 261 259 257 256 256 255 255 255 255 256 257 250 233 252 269 270 271 269 265 265 268 265 253 243 238 237 238 236 234 234 232 236 238 234 229 231 235 238 241 241 242 242 240 239 238 240 243 245 248 249 249 250 251 253 255 255 256 259
239 237 232 230 231 232 233 237 241 242 242 243 242 238 236 231 227 229 231 233 239 246 253 254 252 254 259 263 264 259 255 254 256 256 255 257 262 268 259 236 222 255 297 270 265 264 263 264 263 252 242 239 235 231 233 237 234 233 236 238 237 234 234 240 243 240 236 233 233 233 236 238 241 245 248 252 255 255 256 254 253 256 256 256 258
240 239 235 233 233 234 236 238 241 243 245 246 244 241 239 234 230 231 233 236 242 248 254 254 251 254 259 263 265 263 256 253 256 257 256 258 264 269 267 250 231 216 226 278 257 253 260 262 256 250 248 244 237 233 235 238 236 233 235 238 239 237 235 238 238 228 219 217 218 225 233 241 248 253 257 260 262 264 265 264 261 259 260 261 261
240 240 238 237 238 238 239 240 241 244 247 246 243 242 242 238 234 235 238 240 245 250 255 254 251 252 258 261 264 264 258 253 254 257 256 260 264 267 268 261 245 229 222 236 265 260 265 269 257 248 251 247 238 237 241 243 239 233 233 237 240 238 235 235 230 223 219 220 224 233 242 253 260 266 271 273 274 275 275 274 272 268 266 267 268
234 232 232 235 240 243 244 244 243 244 246 246 244 244 245 242 239 240 242 244 247 250 253 254 252 252 256 259 260 261 260 256 254 255 256 260 265 264 262 259 251 244 238 229 241 268 269 281 276 257 252 250 242 241 244 245 240 232 230 234 239 239 236 233 228 226 228 234 242 251 259 266 272 276 280 282 283 284 284 283 281 278 275 274 274
231 230 230 229 234 240 244 246 246 245 246 248 248 247 246 245 244 245 247 248 248 250 253 255 254 253 254 256 257 259 260 258 255 254 255 259 264 262 258 256 252 251 247 232 224 261 269 278 286 274 259 255 250 245 243 242 240 235 235 237 241 243 240 236 232 234 240 248 256 265 271 276 280 283 285 287 287 288 288 288 286 285 283 281 280
236 236 236 231 229 233 238 242 244 243 243 244 247 248 249 248 246 247 250 251 251 252 254 256 256 254 253 254 256 258 259 259 257 255 254 257 263 262 257 254 251 251 248 235 229 256 272 272 274 274 272 266 256 246 243 243 241 239 243 246 247 249 250 247 245 246 252 259 266 271 275 278 281 283 284 285 286 286 287 288 288 287 287 285 284
238 237 235 232 229 227 227 231 237 242 243 242 242 243 246 248 248 248 249 249 251 252 253 255 256 254 254 253 255 257 259 259 257 256 255 255 259 262 258 252 251 252 249 240 234 244 263 269 270 272 274 272 264 254 250 251 250 248 251 254 255 256 258 259 258 257 260 263 267 269 271 273 274 276 278 280 281 283 284 286 287 287 287 287 286
239 237 234 234 233 231 231 229 230 237 243 243 241 239 238 239 244 249 249 247 248 250 251 253 255 255 254 253 255 256 256 257 257 257 256 255 256 259 259 256 253 253 250 245 239 238 249 263 270 273 274 273 267 259 260 264 263 259 256 256 257 257 258 258 258 257 258 262 267 270 272 274 275 276 277 277 278 279 280 282 283 285 287 288 287
239 236 234 235 236 236 237 234 231 234 239 241 242 242 241 240 241 246 248 248 247 248 249 251 253 254 253 253 255 256 254 254 256 257 256 256 255 256 258 258 255 254 252 247 242 241 243 253 264 271 276 275 265 258 260 266 267 264 260 256 254 254 254 254 254 255 257 263 268 272 275 276 277 278 278 278 278 278 278 279 280 282 285 287 287
240 237 233 234 235 236 238 237 234 236 240 242 243 243 244 244 244 246 248 248 249 250 250 251 252 252 252 252 254 255 254 252 253 254 254 254 255 255 256 256 255 255 253 247 244 242 241 246 258 267 273 273 267 261 261 264 266 265 260 254 252 253 254 254 255 257 260 264 269 272 274 275 276 278 280 281 282 281 280 280 279 280 281 283 285
241 237 233 233 236 237 239 238 237 239 241 242 241 240 240 241 242 244 246 248 250 252 252 252 252 251 251 251 253 253 252 251 252 253 252 252 252 253 253 253 254 253 251 246 243 241 240 244 253 262 267 268 266 263 264 265 264 263 259 255 252 253 256 258 258 258 261 266 271 274 275 277 280 284 287 289 290 288 285 282 281 280 281 282 284
241 239 236 235 236 236 237 236 236 240 241 240 240 240 241 241 242 244 247 249 251 252 252 253 253 253 252 251 252 251 250 250 251 252 251 250 250 250 251 251 251 249 247 244 241 239 239 242 248 255 262 264 262 261 263 265 263 259 256 252 250 251 255 259 260 260 262 268 272 273 277 282 288 291 293 295 296 296 293 289 285 283 283 282 282
244 245 241 240 240 240 239 239 240 241 241 241 241 240 242 243 244 248 251 250 250 252 252 252 252 252 252 252 252 251 250 250 251 251 250 248 247 247 249 249 247 245 243 241 238 236 237 239 245 251 256 258 258 258 260 258 254 253 250 248 248 251 255 260 261 261 264 268 269 270 275 283 288 291 294 296 299 302 303 300 295 291 288 286 285
246 248 246 245 244 244 244 243 244 244 244 244 244 244 245 245 246 250 251 249 247 248 250 251 250 249 249 250 251 251 250 250 251 251 251 250 248 246 246 245 244 242 240 238 236 234 233 235 241 245 247 250 252 253 253 249 248 251 250 246 248 253 257 260 261 261 263 266 267 269 274 280 283 286 289 292 297 304 304 302 300 297 294 290 288
244 247 248 247 245 245 245 243 243 244 246 249 250 250 249 246 248 252 252 251 249 246 247 248 247 247 247 247 248 250 251 251 251 251 251 250 249 248 248 246 243 240 238 235 234 232 230 230 235 238 236 241 248 249 250 253 253 252 249 246 249 253 255 257 260 261 261 262 265 269 274 277 278 282 286 289 296 302 302 299 297 296 294 291 290
244 245 247 247 246 246 246 246 246 246 249 254 257 259 258 250 248 251 251 253 253 248 246 246 246 247 247 247 248 248 249 250 250 250 249 249 249 249 249 248 246 244 239 235 233 231 229 229 233 234 231 236 246 249 251 255 255 251 250 250 249 249 246 245 252 257 258 260 262 265 270 274 278 282 286 291 297 301 299 296 296 295 294 292 290
245 245 245 246 247 248 248 248 250 251 254 258 260 261 260 252 246 247 248 252 255 253 250 248 247 248 248 248 250 249 247 247 247 247 246 246 247 247 247 247 247 247 244 240 237 234 232 232 232 232 232 236 245 249 250 252 253 252 251 249 247 246 241 237 241 249 258 264 262 262 269 276 281 285 288 293 299 299 297 296 297 296 294 292 289
245 244 245 247 247 248 249 249 251 253 255 259 259 258 257 254 251 248 248 252 255 256 255 252 250 250 250 249 250 249 248 247 246 245 244 243 244 244 244 244 244 245 245 245 243 241 241 239 235 234 237 239 243 249 251 251 251 251 248 246 245 244 240 238 242 251 259 263 263 265 272 279 284 288 290 294 297 297 297 299 299 297 294 293 293
243 243 244 246 246 247 248 249 251 254 257 259 261 260 258 258 258 254 252 254 256 257 258 257 254 253 252 250 248 247 247 246 244 242 241 241 241 241 241 240 240 241 242 242 244 243 242 242 239 240 243 245 247 251 252 252 253 253 251 249 248 246 243 243 247 254 257 258 264 271 276 281 287 288 287 292 296 297 299 300 297 295 296 296 297
243 244 243 244 245 245 247 250 252 255 258 260 262 263 262 261 261 259 258 259 259 259 260 260 258 255 254 253 250 248 246 244 242 240 239 238 238 238 238 237 238 238 238 239 240 240 240 239 240 243 247 249 251 252 255 258 260 260 257 255 254 251 246 243 246 250 253 256 264 269 269 277 284 282 284 293 298 298 298 298 296 296 298 298 296
246 245 244 244 245 247 250 251 250 253 258 262 263 265 266 265 263 261 260 261 262 262 262 262 261 259 257 255 253 249 246 244 242 240 238 236 235 235 235 236 236 237 238 239 239 239 239 239 241 243 247 250 251 252 257 260 260 258 253 247 244 238 231 232 239 247 254 260 266 266 261 270 280 282 287 296 298 296 296 297 298 299 298 295 292
253 251 250 251 252 254 254 253 253 256 261 264 266 267 267 266 263 261 260 261 264 264 264 262 262 261 260 258 255 251 248 246 243 240 238 236 234 233 232 233 234 235 237 239 239 240 241 242 243 245 248 250 251 252 256 257 254 252 242 230 227 225 221 223 235 248 257 262 266 266 259 265 279 285 289 295 294 293 296 299 299 298 293 287 286
259 259 259 259 260 261 260 261 262 265 268 270 271 270 269 267 263 262 262 263 265 267 267 267 265 263 261 259 257 252 248 247 246 242 238 235 233 232 231 230 231 232 235 236 237 237 239 240 242 244 245 246 247 250 252 249 246 244 235 227 228 228 225 228 237 248 258 260 262 264 259 264 279 283 283 289 291 290 294 297 293 284 277 282 290
267 267 265 264 264 264 265 267 269 268 271 275 276 274 274 272 268 266 265 265 265 268 270 269 268 265 262 259 257 254 250 249 247 243 239 235 232 231 230 227 226 229 233 233 233 234 235 235 235 236 237 239 241 244 245 242 239 238 235 233 238 238 235 237 240 240 248 256 257 256 253 263 276 276 274 283 293 292 286 271 263 269 283 294 299